Home   Weather   Paris   Past weeks

Flag for France Past Weather in Paris, Île-de-France, France — Yesterday and Last 2 Weeks

Now
54 °F

Partly sunny.


Feels Like: 54 °F
Forecast: 36 / 63 °F
Wind: 2 mph from North

Location: Villacoublay

Current Time: Apr 28, 2017 at 2:14:50 pm

Latest Report: Apr 28, 2017 at 1:30 pm


Visibility: N/A

Pressure: 30.01 "Hg

Humidity: 58%

Dew Point: 39 °F

Location of ParisLocation

Past Weather in Paris — Graph

°F

Paris Temperature Yesterday

Maximum temperature yesterday: 50 °F (at 1:30 pm)
Minimum temperature yesterday: 36 °F (at 3:30 am)
Average temperature yesterday: 43 °F

High & Low Weather Summary for the Past Weeks

 TemperatureHumidityPressure
High63 °F (Apr 21, 4:00 pm)94% (Apr 15, 10:30 am)30.60 "Hg (Apr 15, 10:30 am)
Low34 °F (Apr 20, 5:30 am)23% (Apr 21, 2:00 pm)29.83 "Hg (Apr 25, 2:30 am)
Average48 °F60%30.20 "Hg
* Reported Apr 13 1:00 pm — Apr 28 1:00 pm, Paris, Weather by CustomWeather, © 2017

Note: Actual official high and low records may vary slightly from our data, if they occured in-between our weather recording intervals... More about our weather records

Advertising

Paris Weather History for the Previous 24 Hours

Scroll right to see more
 ConditionsComfort  
Time TempWeatherWind HumidityBarometerVisibility
1:00 pm
Fri, Apr 28
52 °FScattered clouds.5 mph67%30.04 "HgN/A
12:30 pm48 °FBroken clouds.8 mph76%30.04 "HgN/A
12:00 pm48 °FPartly sunny.6 mph82%30.04 "HgN/A
11:30 am46 °FMostly cloudy.7 mph87%30.04 "HgN/A
11:00 am46 °FMostly cloudy.7 mph87%30.04 "HgN/A
10:30 am45 °FLow clouds.6 mph93%30.04 "HgN/A
9:30 am41 °FPartly sunny.5 mph93%30.01 "Hg5 mi
9:00 am41 °FMostly cloudy.6 mph87%30.01 "HgN/A
8:30 am39 °FLight rain. Fog.6 mph93%30.01 "Hg3 mi
8:00 am39 °FMostly cloudy.6 mph87%30.01 "HgN/A
7:30 am39 °FLight rain. Overcast.6 mph87%30.01 "HgN/A
7:00 am37 °FLight rain. Mostly cloudy.6 mph93%30.01 "HgN/A
6:30 am37 °FLight rain. Partly cloudy.3 mph87%30.01 "HgN/A
6:00 am39 °FLight rain. Passing clouds.5 mph81%30.01 "HgN/A
5:30 am39 °FPassing clouds.3 mph75%30.04 "HgN/A
5:00 am39 °FMostly cloudy.5 mph75%30.04 "HgN/A
4:30 am39 °FMostly cloudy.5 mph75%30.04 "HgN/A
4:00 am39 °FOvercast.2 mph70%30.04 "HgN/A
3:30 am39 °FClear.2 mph70%30.04 "Hg10 mi
3:00 am39 °FClear.3 mph70%30.04 "Hg10 mi
2:30 am39 °FClear.3 mph70%30.04 "Hg10 mi
2:00 am39 °FClear.2 mph65%30.04 "Hg10 mi
1:30 am39 °FClear.2 mph65%30.07 "Hg10 mi
1:00 am39 °FClear.3 mph65%30.07 "Hg10 mi
12:30 am39 °FClear.5 mph65%30.07 "Hg10 mi
12:00 am41 °FClear.3 mph57%30.07 "Hg10 mi
11:30 pm
Thu, Apr 27
41 °FClear.3 mph57%30.07 "Hg10 mi
11:00 pm43 °FPassing clouds.3 mph53%30.07 "HgN/A
10:30 pm43 °FPassing clouds.3 mph53%30.07 "HgN/A
10:00 pm43 °FClear.3 mph49%30.07 "Hg10 mi
9:30 pm45 °FPassing clouds.5 mph46%30.07 "HgN/A
9:00 pm46 °FClear.7 mph43%30.04 "Hg10 mi
8:30 pm46 °FPassing clouds.9 mph43%30.04 "HgN/A
8:00 pm48 °FPassing clouds.9 mph37%30.04 "HgN/A
7:30 pm50 °FPassing clouds.10 mph32%30.04 "HgN/A
7:00 pm48 °FPassing clouds.12 mph37%30.04 "HgN/A
6:30 pm50 °FPassing clouds.12 mph37%30.04 "HgN/A
6:00 pm50 °FPassing clouds.14 mph37%30.04 "HgN/A
5:30 pm50 °FPassing clouds.14 mph37%30.04 "HgN/A
5:00 pm50 °FPassing clouds.9 mph43%30.04 "HgN/A
4:30 pm48 °FPassing clouds.10 mph40%30.07 "HgN/A
4:00 pm50 °FPassing clouds.10 mph43%30.07 "HgN/A
3:30 pm50 °FBroken clouds.14 mph47%30.07 "HgN/A
2:30 pm48 °FPartly sunny.13 mph54%30.07 "HgN/A
2:00 pm46 °FPartly sunny.16 mph62%30.07 "HgN/A
Weather by CustomWeather, © 2017

See weather overviewHow to use our weather pages